Volver al catálogo

STARLINK-37937

ActivoComunicacionesVLEO
NORAD 69944·PAYLOAD·🇺🇸 United States

Lanzado Jul 9, 2026 desde Cape Canaveral Space Force Station

Loading…

Próximos Pases (próximas 24 horas)

TLE

ActualizadoSource: CelesTrak SupGP

Época: Sep 15, 2026, 03:15 UTC

1 69944C 26157B   26258.13590278  .00075674  00000+0  22352-2 0  2583
2 69944  53.1601 358.6612 0001139  84.7002 191.2060 15.34361086    13

Sigue STARLINK-37937 en tiempo real con AllMySat

Download on the App Store